BEIDOU-2 IGSO-6 (C13)

Last updated on Wed Aug 26 2026 00:04:16 GMT+0000 (Coordinated Universal Time)

1 41434U 16021A 26236.92221383 -.00000124 00000+0 00000+0 0 9991 2 41434 60.3294 37.3596 0060671 227.7969 135.8730 1.00286406 38170
UTC large
Height (km)
Speed (km/s)
/
Latitude / Longitude
Inclination (degrees)
Orbital Period (minutes)
Azimuth
Elevation
Range (km)
Doppler Factor

Next 0 passes for location: London (51.5072 / 0.1276)

No passes found over London.
BEIDOU-2 IGSO-6 (C13)